DW9375 Weather Reports


time (UTC)temp
C
wind
direction
speed
KPH
gust
KPH
rain 1hr
cm
rain 24hr
cm
rain mn
cm
humidity
%
barometer
mb
20190426112011 12 253 9.7 0.0 0.00 0.00 0.20 82 1012.8
20190426110011 12 232 6.4 0.0 0.00 0.00 0.20 81 1013.2
20190426105011 12 248 4.8 0.0 0.00 0.00 0.20 82 1013.1
20190426101012 11 277 6.4 0.0 0.00 0.00 0.20 84 1012.9
20190426095012 11 242 3.2 0.0 0.00 0.00 0.20 86 1013.0
20190426094012 11 274 6.4 0.0 0.00 0.00 0.20 86 1013.0
20190426091011 11 264 12.9 0.0 0.00 0.00 0.20 88 1012.7
20190426085013 10 268 6.4 0.0 0.00 0.00 0.20 89 1012.7
20190426083011 10 258 8.0 0.0 0.00 0.00 0.18 89 1012.5
20190426082012 10 267 6.4 0.0 0.00 0.00 0.18 89 1012.4
20190426080011 10 233 4.8 0.0 0.00 0.00 0.15 89 1012.1
20190426075011 10 250 3.2 0.0 0.00 0.00 0.15 90 1011.9
20190426073025 10 180 1.6 0.0 0.00 0.00 0.15 90 1011.6
20190426072012 10 211 6.4 0.0 0.00 0.00 0.15 90 1011.5
20190426071012 10 253 4.8 0.0 0.00 0.00 0.15 89 1011.4
20190426063012 10 223 4.8 0.0 0.00 0.00 0.10 88 1011.3
20190426061011 10 245 8.0 0.0 0.00 0.00 0.05 87 1011.1
20190426054012 10 241 6.4 0.0 0.00 0.00 0.03 85 1010.8
20190426053012 10 250 9.7 0.0 0.00 0.00 0.00 85 1010.8
20190426052012 11 254 14.5 20.9 0.00 0.00 0.00 85 1010.7
20190426050012 11 277 8.0 0.0 0.00 0.00 0.00 84 1010.4
20190426045012 11 255 6.4 0.0 0.00 0.00 0.00 82 1010.5
20190426042011 11 267 3.2 0.0 0.00 0.00 0.00 81 1010.0
20190426041011 11 282 6.4 0.0 0.00 0.00 0.00 81 1010.0
20190426035011 11 240 3.2 0.0 0.00 0.00 0.00 82 1010.0
20190426034012 11 238 8.0 0.0 0.00 0.00 0.00 82 1009.8
20190426033012 11 234 4.8 0.0 0.00 0.00 0.00 82 1009.6
20190426030012 11 236 3.2 0.0 0.00 0.00 0.00 83 1009.8
20190426025012 11 242 3.2 0.0 0.00 0.00 0.00 84 1010.0
20190426024012 10 224 3.2 0.0 0.00 0.00 0.00 85 1009.9
20190426022012 10 219 3.2 0.0 0.00 0.00 0.00 85 1009.8
20190426021011 10 222 1.6 0.0 0.00 0.00 0.00 85 1009.8
20190426020012 10 247 0.0 0.0 0.00 0.00 0.00 85 1009.5
20190426014012 10 243 3.2 0.0 0.00 0.00 0.00 85 1009.5
20190426010012 10 161 1.6 0.0 0.00 0.00 0.00 82 1008.9
20190426004010 11 143 0.0 0.0 0.00 0.00 0.00 81 1008.7
20190426003010 11 143 0.0 0.0 0.00 0.00 0.00 81 1008.8
20190426002010 11 109 1.6 0.0 0.00 0.00 0.00 81 1008.7
20190426001014 11 107 1.6 0.0 0.00 0.00 0.00 81 1008.7
20190425231011 11 255 9.7 0.0 0.00 0.00 0.00 78 1009.0
20190425224011 12 266 4.8 0.0 0.00 0.00 0.00 76 1009.2
20190425223010 12 268 6.4 0.0 0.00 0.00 0.00 75 1009.0
20190425221010 12 298 6.4 0.0 0.00 0.00 0.00 75 1008.8
20190425214010 13 286 4.8 0.0 0.00 0.00 0.00 73 1008.7
20190425213011 13 265 6.4 0.0 0.00 0.00 0.00 72 1008.8
20190425212011 13 269 8.0 0.0 0.00 0.00 0.00 70 1008.7
20190425211011 14 253 11.3 0.0 0.00 0.00 0.00 68 1008.6
20190425210011 14 261 8.0 30.6 0.00 0.00 0.00 67 1008.5
20190425205010 15 293 12.9 0.0 0.00 0.00 0.00 66 1008.3
20190425204010 15 281 9.7 29.0 0.00 0.00 0.00 64 1008.4
20190425203011 15 266 17.7 32.2 0.00 0.00 0.00 63 1008.5
20190425201011 15 265 12.9 0.0 0.00 0.00 0.00 63 1008.2
20190425195010 16 249 19.3 0.0 0.00 0.00 0.00 62 1007.8
20190425194011 16 285 9.7 30.6 0.00 0.00 0.00 62 1007.6
20190425192011 16 289 12.9 0.0 0.00 0.00 0.00 63 1007.2
20190425191011 16 255 12.9 0.0 0.00 0.00 0.00 62 1007.0
20190425190011 17 252 12.9 0.0 0.00 0.00 0.00 61 1006.7
20190425185011 17 288 14.5 0.0 0.00 0.00 0.00 60 1006.6
20190425184011 18 290 17.7 45.1 0.00 0.00 0.00 58 1006.1
20190425183011 19 286 14.5 0.0 0.00 0.00 0.00 53 1005.8
20190425182010 20 276 19.3 0.0 0.00 0.00 0.00 52 1005.6
20190425175010 21 244 1.6 0.0 0.00 0.00 0.00 47 1005.2
20190425172010 22 178 0.0 0.0 0.00 0.00 0.00 43 1005.0
20190425170011 22 158 1.6 0.0 0.00 0.00 0.00 41 1005.2
20190425164010 22 103 3.2 0.0 0.00 0.00 0.00 41 1005.0
20190425163010 22 162 8.0 0.0 0.00 0.00 0.00 42 1005.0
20190425161011 22 162 8.0 0.0 0.00 0.00 0.00 40 1005.1
20190425155011 22 162 8.0 0.0 0.00 0.00 0.00 38 1005.3
20190425154011 22 162 8.0 0.0 0.00 0.00 0.00 43 1005.3
20190425151011 22 162 8.0 0.0 0.00 0.00 0.00 39 1005.4
20190425150011 22 162 8.0 0.0 0.00 0.00 0.00 38 1005.5
20190425145011 22 162 8.0 0.0 0.00 0.00 0.00 38 1005.5
20190425143011 22 162 8.0 0.0 0.00 0.00 0.00 40 1005.7
20190425142011 22 162 8.0 0.0 0.00 0.00 0.00 40 1005.8
20190425135011 22 127 11.3 0.0 0.00 0.00 0.00 42 1006.3
20190425134011 22 104 8.0 0.0 0.00 0.00 0.00 41 1006.4
20190425132011 21 197 12.9 0.0 0.00 0.00 0.00 44 1006.4
20190425125010 22 203 9.7 0.0 0.00 0.00 0.00 42 1006.4
20190425123011 21 188 11.3 25.7 0.00 0.00 0.00 45 1006.8
20190425121011 21 172 14.5 22.5 0.00 0.00 0.00 45 1007.1
20190425114011 20 115 14.5 32.2 0.00 0.00 0.00 45 1007.2